Location: ??????
(30.5519°N, 47.7720°E)
Time: 17:19:14
(UTC+00:00)

NOSS 3-1 (C) - Pass Details

Date: 24 January 2021
Orbit: 723 x 1485 km, 63.3° (Epoch: 02 March)

Event Time Altitude Azimuth Distance (km) Brightness Sun altitude
Rises 16:30:46 0° 329° (NNW) 4,138 7.1 -28.4°
Reaches altitude 10° 16:33:23 10° 329° (NNW) 3,264 6.5 -29.0°
Maximum altitude 16:41:32 82° 243° (WSW) 1,421 4.2 -30.7°
Enters shadow 16:47:48 23° 159° (SSE) 2,723 5.6 -32.1°
